Overview Statistics Trail Chart Weather Telemetry Raw packets
 

This is the latest recevied weather packets stored in our database for station/object SP3ZBZ-13. If no packets are shown the sender has not sent any weather packets the latest 10 day(s).

<< 2 3 4 5 6 7 8 >>
Time Temp. Humidity Pressure Rain* Wind** Luminosity Snow
1788530103 21.67° C 73% 998.9 hPa 0.51 mm - 57 W/m² -
1788529202 21.67° C 75% 999.2 hPa 0.51 mm - 116 W/m² -
1788528300 21.67° C 73% 999.4 hPa 0.51 mm - 18 W/m² -
1788527399 21.67° C 73% 999.6 hPa 0.51 mm - 144 W/m² -
1788526499 21.67° C 74% 1000 hPa 0.51 mm - 186 W/m² -
1788525597 21.11° C 73% 1000.4 hPa 0.51 mm - 194 W/m² -
1788524696 20.56° C 76% 1000.8 hPa 0.51 mm - 168 W/m² -
1788523796 20.56° C 77% 1001.4 hPa 0.51 mm - 83 W/m² -
1788522894 20° C 78% 1001.8 hPa 0.51 mm - 198 W/m² -
1788521993 19.44° C 82% 1002.1 hPa 0.51 mm - 138 W/m² -
1788521092 18.89° C 84% 1002.7 hPa 0.51 mm - 73 W/m² -
1788520192 18.33° C 86% 1003.1 hPa 0.51 mm - 131 W/m² -
1788519290 17.78° C 87% 1003.6 hPa 0.51 mm - 113 W/m² -
1788518389 17.78° C 85% 1004 hPa 0.51 mm - 32 W/m² -
1788517489 17.78° C 78% 1004.4 hPa - - 99 W/m² -
1788516587 17.78° C 75% 1004.7 hPa - - 101 W/m² -
1788515687 17.78° C 73% 1005 hPa - - 119 W/m² -
1788514785 19.44° C 76% 1005.1 hPa - - 183 W/m² -
1788513884 19.44° C 76% 1005.3 hPa - - 208 W/m² -
1788512983 19.44° C 76% 1005.6 hPa - - 207 W/m² -
1788512082 18.89° C 76% 1005.6 hPa - - 293 W/m² -
1788511181 18.89° C 77% 1005.9 hPa - - 133 W/m² -
1788510280 18.89° C 76% 1005.9 hPa - - 239 W/m² -
1788509379 18.33° C 76% 1005.9 hPa - - 183 W/m² -
1788508494 18.33° C 76% 1006.1 hPa - - 189 W/m² -

* Rain latest 24 hours (hover to see other rain measurements)
** Current wind speed in m/s (hover to see current wind gust speed)